FW4624 Weather Reports


time (UTC)temp
C
wind
direction
speed
KPH
gust
KPH
rain 1hr
cm
rain 24hr
cm
rain mn
cm
humidity
%
barometer
mb
20190421001009 10 5 1.6 4.8 0.00 0.00 0.00 63 1025.4
20190421000517 10 5 1.6 4.8 0.00 0.00 0.00 63 1025.5
20190421000006 10 5 1.6 4.8 0.00 0.00 0.00 63 1025.4
20190420235504 10 5 1.6 4.8 0.00 0.00 0.00 62 1025.5
20190420235002 11 5 1.6 4.8 0.00 0.00 0.00 62 1025.6
20190420234503 11 5 1.6 4.8 0.00 0.00 0.00 61 1025.5
20190420234102 11 5 1.6 4.8 0.00 0.00 0.00 60 1025.6
20190420233604 11 5 1.6 4.8 0.00 0.00 0.00 59 1025.6
20190420233128 11 5 1.6 4.8 0.00 0.00 0.00 58 1025.7
20190420232557 11 5 1.6 4.8 0.00 0.00 0.00 58 1025.7
20190420232056 11 5 1.6 4.8 0.00 0.00 0.00 58 1025.8
20190420231708 11 5 1.6 4.8 0.00 0.00 0.00 58 1025.9
20190420231059 12 5 3.2 6.4 0.00 0.00 0.00 57 1025.9
20190420230556 12 5 3.2 6.4 0.00 0.00 0.00 57 1025.9
20190420230152 12 5 1.6 4.8 0.00 0.00 0.00 56 1026.0
20190420225555 12 5 1.6 4.8 0.00 0.00 0.00 56 1026.0
20190420225100 12 5 1.6 6.4 0.00 0.00 0.00 56 1026.0
20190420224744 12 5 1.6 6.4 0.00 0.00 0.00 56 1026.0
20190420224055 12 5 3.2 6.4 0.00 0.00 0.00 57 1026.1
20190420223559 12 5 1.6 6.4 0.00 0.00 0.00 57 1026.1
20190420223121 12 5 3.2 6.4 0.00 0.00 0.00 57 1026.0
20190420222555 12 5 1.6 4.8 0.00 0.00 0.00 57 1026.0
20190420222052 12 5 1.6 6.4 0.00 0.00 0.00 57 1025.9
20190420221642 12 5 3.2 6.4 0.00 0.00 0.00 57 1026.0
20190420221059 12 15 3.2 6.4 0.00 0.00 0.00 57 1025.9
20190420220553 12 15 3.2 6.4 0.00 0.00 0.00 58 1026.0
20190420220142 12 16 3.2 4.8 0.00 0.00 0.00 59 1026.1
20190420215555 11 16 1.6 4.8 0.00 0.00 0.00 60 1026.1
20190420215057 12 16 0.0 4.8 0.00 0.00 0.00 60 1026.1
20190420214652 12 16 1.6 4.8 0.00 0.00 0.00 58 1026.0
20190420214054 12 16 1.6 4.8 0.00 0.00 0.00 60 1025.8
20190420213549 11 16 0.0 3.2 0.00 0.00 0.00 64 1025.8
20190420213207 11 16 0.0 3.2 0.00 0.00 0.00 64 1025.9
20190420212552 11 16 0.0 0.0 0.00 0.00 0.00 66 1025.9
20190420212048 11 16 0.0 3.2 0.00 0.00 0.00 62 1025.9
20190420211644 12 16 0.0 4.8 0.00 0.00 0.00 59 1025.8
20190420211048 12 16 1.6 4.8 0.00 0.00 0.00 58 1025.7
20190420210550 12 16 0.0 0.0 0.00 0.00 0.00 59 1025.8
20190420210154 12 16 0.0 0.0 0.00 0.00 0.00 57 1025.8
20190420205548 13 16 0.0 4.8 0.00 0.00 0.00 57 1025.7
20190420205051 13 16 1.6 4.8 0.00 0.00 0.00 56 1025.8
20190420204644 13 16 0.0 3.2 0.00 0.00 0.00 55 1025.8
20190420204047 13 16 0.0 3.2 0.00 0.00 0.00 54 1025.7
20190420203552 14 16 0.0 3.2 0.00 0.00 0.00 53 1025.6
20190420203108 14 16 0.0 3.2 0.00 0.00 0.00 53 1025.6
20190420202546 13 16 0.0 3.2 0.00 0.00 0.00 54 1025.6
20190420202046 13 16 0.0 3.2 0.00 0.00 0.00 56 1025.7
20190420201629 13 16 0.0 1.6 0.00 0.00 0.00 57 1025.7
20190420201046 13 16 0.0 1.6 0.00 0.00 0.00 57 1025.7
20190420200546 13 16 0.0 1.6 0.00 0.00 0.00 58 1025.7
20190420200247 14 16 0.0 3.2 0.00 0.00 0.00 55 1025.6
20190420195546 14 16 0.0 3.2 0.00 0.00 0.00 55 1025.7
20190420195046 15 16 0.0 4.8 0.00 0.00 0.00 52 1025.7
20190420194626 15 16 0.0 4.8 0.00 0.00 0.00 49 1025.6
20190420194046 15 16 3.2 4.8 0.00 0.00 0.00 49 1025.5
20190420193546 15 17 0.0 1.6 0.00 0.00 0.00 49 1025.5
20190420193116 16 17 0.0 3.2 0.00 0.00 0.00 46 1025.5
20190420192545 17 17 0.0 3.2 0.00 0.00 0.00 42 1025.5
20190420192044 18 17 0.0 4.8 0.00 0.00 0.00 40 1025.5
20190420191644 18 17 0.0 4.8 0.00 0.00 0.00 38 1025.4
20190420191049 18 17 0.0 3.2 0.00 0.00 0.00 38 1025.3
20190420190550 18 17 0.0 3.2 0.00 0.00 0.00 37 1025.4
20190420190146 18 16 0.0 6.4 0.00 0.00 0.00 37 1025.4
20190420185544 19 15 1.6 6.4 0.00 0.00 0.00 37 1025.3
20190420185055 19 44 0.0 6.4 0.00 0.00 0.00 37 1025.3
20190420184628 19 40 1.6 6.4 0.00 0.00 0.00 36 1025.3
20190420184045 20 59 1.6 8.0 0.00 0.00 0.00 35 1025.2
20190420183553 20 57 1.6 8.0 0.00 0.00 0.00 35 1025.1
20190420183119 20 43 1.6 6.4 0.00 0.00 0.00 34 1025.1
20190420182543 20 40 1.6 6.4 0.00 0.00 0.00 34 1025.1
20190420182046 20 17 1.6 6.4 0.00 0.00 0.00 34 1025.0
20190420181618 20 13 1.6 6.4 0.00 0.00 0.00 34 1025.0
20190420181042 21 17 1.6 6.4 0.00 0.00 0.00 34 1025.0
20190420180543 21 5 1.6 6.4 0.00 0.00 0.00 34 1024.9
20190420180107 21 5 1.6 8.0 0.00 0.00 0.00 33 1024.9
20190420175551 21 5 1.6 8.0 0.00 0.00 0.00 33 1024.9
20190420175047 21 5 1.6 8.0 0.00 0.00 0.00 32 1024.9
20190420174650 21 40 1.6 8.0 0.00 0.00 0.00 32 1024.9
20190420174051 22 12 1.6 8.0 0.00 0.00 0.00 32 1024.9
20190420173551 22 14 3.2 8.0 0.00 0.00 0.00 31 1025.0
20190420173105 22 9 3.2 12.9 0.00 0.00 0.00 30 1024.9
20190420172540 22 23 3.2 12.9 0.00 0.00 0.00 30 1025.0
20190420172040 22 12 1.6 8.0 0.00 0.00 0.00 31 1024.9
20190420171632 23 355 1.6 8.0 0.00 0.00 0.00 30 1025.0
20190420171041 23 14 1.6 6.4 0.00 0.00 0.00 30 1025.0
20190420170547 23 67 1.6 8.0 0.00 0.00 0.00 28 1025.1
20190420170147 23 74 1.6 11.3 0.00 0.00 0.00 29 1025.1
20190420165540 23 42 1.6 8.0 0.00 0.00 0.00 28 1025.1
20190420165045 23 19 3.2 14.5 0.00 0.00 0.00 27 1025.1
20190420164551 23 30 3.2 14.5 0.00 0.00 0.00 28 1025.2
20190420164040 23 360 3.2 12.9 0.00 0.00 0.00 28 1025.2
20190420163543 24 5 4.8 12.9 0.00 0.00 0.00 28 1025.1
20190420163104 24 44 3.2 8.0 0.00 0.00 0.00 27 1025.3
20190420162547 25 288 3.2 6.4 0.00 0.00 0.00 26 1025.3
20190420162040 25 71 1.6 8.0 0.00 0.00 0.00 25 1025.4
20190420161615 24 71 3.2 9.7 0.00 0.00 0.00 26 1025.5
20190420161040 24 107 1.6 8.0 0.00 0.00 0.00 29 1025.5
20190420160537 25 351 0.0 8.0 0.00 0.00 0.00 26 1025.6
20190420160056 25 355 1.6 8.0 0.00 0.00 0.00 24 1025.5
20190420155539 25 5 3.2 11.3 0.00 0.00 0.00 24 1025.6
20190420155036 25 17 3.2 11.3 0.00 0.00 0.00 25 1025.5
20190420154635 25 54 0.0 9.7 0.00 0.00 0.00 26 1025.6
20190420154037 25 43 4.8 9.7 0.00 0.00 0.00 24 1025.7
20190420153535 25 88 1.6 9.7 0.00 0.00 0.00 28 1025.7
20190420153111 25 67 3.2 9.7 0.00 0.00 0.00 25 1025.7
20190420152538 25 78 4.8 9.7 0.00 0.00 0.00 24 1025.8
20190420152034 25 9 1.6 9.7 0.00 0.00 0.00 25 1025.7
20190420151555 25 18 3.2 12.9 0.00 0.00 0.00 24 1025.9
20190420151034 25 92 1.6 6.4 0.00 0.00 0.00 25 1025.9
20190420150534 25 103 3.2 6.4 0.00 0.00 0.00 27 1026.0
20190420150127 25 99 3.2 8.0 0.00 0.00 0.00 24 1025.9
20190420145531 25 83 3.2 8.0 0.00 0.00 0.00 24 1026.1
20190420145041 25 117 4.8 12.9 0.00 0.00 0.00 24 1026.2
20190420144548 25 98 8.0 16.1 0.00 0.00 0.00 24 1026.1
20190420144036 25 80 6.4 16.1 0.00 0.00 0.00 23 1026.2
20190420143532 26 78 0.0 9.7 0.00 0.00 0.00 30 1026.2
20190420143157 25 49 1.6 9.7 0.00 0.00 0.00 25 1026.3
20190420142536 25 99 4.8 11.3 0.00 0.00 0.00 24 1026.3
20190420142031 25 154 1.6 8.0 0.00 0.00 0.00 28 1026.4
20190420141606 25 154 3.2 8.0 0.00 0.00 0.00 26 1026.4
20190420141026 25 143 0.0 4.8 0.00 0.00 0.00 25 1026.5
20190420140534 25 143 1.6 6.4 0.00 0.00 0.00 23 1026.7
20190420140113 25 148 1.6 6.4 0.00 0.00 0.00 24 1026.6
20190420135525 25 157 0.0 9.7 0.00 0.00 0.00 29 1026.8
20190420135025 25 157 1.6 12.9 0.00 0.00 0.00 26 1026.8
20190420134608 25 119 4.8 14.5 0.00 0.00 0.00 26 1027.0
20190420134031 25 121 8.0 14.5 0.00 0.00 0.00 26 1027.0
20190420133530 25 167 0.0 4.8 0.00 0.00 0.00 30 1027.0
20190420133042 25 167 3.2 9.7 0.00 0.00 0.00 28 1027.1
20190420132527 25 167 1.6 12.9 0.00 0.00 0.00 28 1027.2
20190420132025 24 107 4.8 12.9 0.00 0.00 0.00 25 1027.2
20190420131607 25 123 4.8 11.3 0.00 0.00 0.00 26 1027.3
20190420131020 25 115 1.6 11.3 0.00 0.00 0.00 24 1027.3
20190420130520 25 116 4.8 11.3 0.00 0.00 0.00 29 1027.5
20190420130056 24 160 4.8 14.5 0.00 0.00 0.00 28 1027.5
20190420125519 25 108 6.4 14.5 0.00 0.00 0.00 25 1027.6
20190420125023 24 98 4.8 14.5 0.00 0.00 0.00 24 1027.6
20190420124617 24 103 6.4 12.9 0.00 0.00 0.00 26 1027.6
20190420124018 24 173 1.6 14.5 0.00 0.00 0.00 24 1027.6
20190420123517 24 173 8.0 14.5 0.00 0.00 0.00 26 1027.7
20190420123039 24 110 4.8 14.5 0.00 0.00 0.00 23 1027.8
20190420122520 24 109 8.0 14.5 0.00 0.00 0.00 25 1027.8
20190420122015 24 112 4.8 12.9 0.00 0.00 0.00 28 1027.7
20190420121518 23 255 4.8 17.7 0.00 0.00 0.00 27 1027.8
20190420121013 24 121 9.7 17.7 0.00 0.00 0.00 28 1027.9
20190420120512 24 84 6.4 16.1 0.00 0.00 0.00 26 1028.0
20190420120021 23 100 1.6 9.7 0.00 0.00 0.00 24 1028.0
20190420115514 23 105 1.6 12.9 0.00 0.00 0.00 27 1028.1
20190420115010 24 111 4.8 14.5 0.00 0.00 0.00 27 1028.1
20190420114530 23 159 6.4 16.1 0.00 0.00 0.00 25 1028.2
20190420114008 23 106 6.4 16.1 0.00 0.00 0.00 27 1028.2
20190420113512 23 109 8.0 16.1 0.00 0.00 0.00 25 1028.3
20190420113016 23 125 3.2 16.1 0.00 0.00 0.00 27 1028.4
20190420112508 23 101 6.4 16.1 0.00 0.00 0.00 26 1028.5
20190420112011 23 130 3.2 14.5 0.00 0.00 0.00 26 1028.4
20190420111515 24 111 4.8 9.7 0.00 0.00 0.00 28 1028.6
20190420111004 23 194 1.6 11.3 0.00 0.00 0.00 34 1028.7
20190420110503 23 333 3.2 11.3 0.00 0.00 0.00 29 1028.7
20190420110028 23 102 3.2 9.7 0.00 0.00 0.00 27 1028.8
20190420105503 23 360 3.2 9.7 0.00 0.00 0.00 28 1028.7
20190420105004 23 360 1.6 8.0 0.00 0.00 0.00 34 1028.8
20190420104509 22 355 3.2 14.5 0.00 0.00 0.00 31 1028.8
20190420104004 22 12 4.8 14.5 0.00 0.00 0.00 29 1028.8
20190420103502 22 100 1.6 9.7 0.00 0.00 0.00 30 1028.9
20190420103156 23 332 4.8 9.7 0.00 0.00 0.00 29 1029.0
20190420102559 23 355 0.0 4.8 0.00 0.00 0.00 36 1029.0
20190420102059 22 22 1.6 6.4 0.00 0.00 0.00 38 1029.0
20190420101647 22 355 1.6 6.4 0.00 0.00 0.00 35 1029.1
20190420101102 22 355 1.6 8.0 0.00 0.00 0.00 34 1029.1
20190420100600 21 360 1.6 8.0 0.00 0.00 0.00 42 1029.2
20190420100134 21 344 3.2 6.4 0.00 0.00 0.00 35 1029.2
20190420095558 21 355 0.0 4.8 0.00 0.00 0.00 39 1029.2
20190420095055 21 349 1.6 12.9 0.00 0.00 0.00 35 1029.4
20190420094659 21 344 3.2 12.9 0.00 0.00 0.00 35 1029.4
20190420094055 21 329 3.2 9.7 0.00 0.00 0.00 37 1029.4
20190420093556 21 46 1.6 4.8 0.00 0.00 0.00 36 1029.3
20190420093200 21 46 0.0 6.4 0.00 0.00 0.00 42 1029.4
20190420092553 20 19 1.6 6.4 0.00 0.00 0.00 37 1029.4
20190420092110 21 5 1.6 4.8 0.00 0.00 0.00 39 1029.3
20190420091051 20 344 1.6 6.4 0.00 0.00 0.00 38 1029.5
20190420090111 20 336 1.6 8.0 0.00 0.00 0.00 40 1029.5
20190420085548 20 355 0.0 4.8 0.00 0.00 0.00 43 1029.5
20190420085047 20 355 0.0 4.8 0.00 0.00 0.00 42 1029.6
20190420084643 19 355 1.6 6.4 0.00 0.00 0.00 41 1029.5
20190420084046 18 355 1.6 6.4 0.00 0.00 0.00 41 1029.7
20190420083547 18 345 3.2 8.0 0.00 0.00 0.00 42 1029.6
20190420083109 18 343 3.2 8.0 0.00 0.00 0.00 43 1029.7
20190420082543 18 341 3.2 8.0 0.00 0.00 0.00 47 1029.7
20190420082042 18 347 1.6 9.7 0.00 0.00 0.00 48 1029.7
20190420081618 18 338 4.8 9.7 0.00 0.00 0.00 48 1029.6
20190420081046 17 345 3.2 9.7 0.00 0.00 0.00 49 1029.7
20190420080540 17 338 3.2 9.7 0.00 0.00 0.00 49 1029.7
20190420080117 17 5 4.8 9.7 0.00 0.00 0.00 50 1029.8
20190420075539 17 9 3.2 9.7 0.00 0.00 0.00 50 1029.7
20190420075039 16 16 3.2 8.0 0.00 0.00 0.00 52 1029.7
20190420074625 16 24 3.2 8.0 0.00 0.00 0.00 52 1029.8
20190420074037 16 342 3.2 6.4 0.00 0.00 0.00 52 1029.8
20190420073535 16 346 1.6 6.4 0.00 0.00 0.00 53 1029.8
20190420073149 16 350 3.2 8.0 0.00 0.00 0.00 53 1029.8
20190420072529 15 347 3.2 8.0 0.00 0.00 0.00 56 1029.8
20190420072036 15 340 1.6 8.0 0.00 0.00 0.00 57 1029.7
20190420071558 15 348 4.8 8.0 0.00 0.00 0.00 57 1029.8
20190420071027 14 339 4.8 8.0 0.00 0.00 0.00 58 1029.8
20190420070527 14 317 3.2 9.7 0.00 0.00 0.00 58 1029.7
20190420070051 14 336 3.2 8.0 0.00 0.00 0.00 58 1029.7
20190420065528 13 11 3.2 8.0 0.00 0.00 0.00 58 1029.8
20190420065025 13 360 4.8 8.0 0.00 0.00 0.00 56 1029.8
20190420064601 13 11 3.2 8.0 0.00 0.00 0.00 57 1029.7
20190420064024 13 347 3.2 8.0 0.00 0.00 0.00 57 1029.8
20190420063523 13 355 1.6 8.0 0.00 0.00 0.00 58 1029.8
20190420063037 13 342 4.8 8.0 0.00 0.00 0.00 59 1029.7
20190420062524 13 21 1.6 4.8 0.00 0.00 0.00 63 1029.6
20190420062023 12 21 0.0 3.2 0.00 0.00 0.00 64 1029.7
20190420061529 12 21 0.0 3.2 0.00 0.00 0.00 64 1029.7
20190420061024 12 21 0.0 3.2 0.00 0.00 0.00 64 1029.7
20190420060028 11 21 0.0 1.6 0.00 0.00 0.00 67 1029.7
20190420055521 10 21 0.0 1.6 0.00 0.00 0.00 69 1029.6
20190420055021 10 21 0.0 1.6 0.00 0.00 0.00 74 1029.6
20190420054522 9 21 0.0 0.0 0.00 0.00 0.00 81 1029.5
20190420054023 8 21 0.0 0.0 0.00 0.00 0.00 76 1029.5
20190420053519 8 21 0.0 0.0 0.00 0.00 0.00 81 1029.5
20190420053029 7 21 0.0 1.6 0.00 0.00 0.00 81 1029.5
20190420052525 7 21 0.0 1.6 0.00 0.00 0.00 81 1029.4
20190420052022 7 21 0.0 3.2 0.00 0.00 0.00 79 1029.5
20190420051548 7 21 0.0 4.8 0.00 0.00 0.00 76 1029.5
20190420051018 7 21 1.6 4.8 0.00 0.00 0.00 77 1029.4
20190420050519 7 21 1.6 4.8 0.00 0.00 0.00 78 1029.4
20190420050035 7 21 1.6 3.2 0.00 0.00 0.00 80 1029.4
20190420045517 6 21 0.0 3.2 0.00 0.00 0.00 82 1029.4
20190420045016 6 21 0.0 0.0 0.00 0.00 0.00 82 1029.3
20190420044521 6 21 0.0 0.0 0.00 0.00 0.00 81 1029.3
20190420044020 6 21 0.0 0.0 0.00 0.00 0.00 80 1029.2
20190420043516 6 21 0.0 0.0 0.00 0.00 0.00 81 1029.2
20190420043059 6 21 0.0 0.0 0.00 0.00 0.00 82 1029.2
20190420042521 6 21 0.0 0.0 0.00 0.00 0.00 83 1029.1
20190420042014 6 21 0.0 0.0 0.00 0.00 0.00 82 1029.1
20190420041522 6 21 0.0 0.0 0.00 0.00 0.00 80 1029.0
20190420041013 6 21 0.0 0.0 0.00 0.00 0.00 80 1029.0
20190420040517 6 21 0.0 0.0 0.00 0.00 0.00 80 1029.0
20190420040038 6 21 0.0 0.0 0.00 0.00 0.00 79 1029.0
20190420035511 7 21 0.0 1.6 0.00 0.00 0.00 78 1029.0
20190420035014 7 21 0.0 1.6 0.00 0.00 0.00 76 1028.9
20190420034543 7 21 0.0 1.6 0.00 0.00 0.00 75 1029.0
20190420034011 8 21 0.0 3.2 0.00 0.00 0.00 75 1029.0
20190420033511 7 21 0.0 3.2 0.00 0.00 0.00 76 1028.9
20190420033027 7 21 1.6 3.2 0.00 0.00 0.00 79 1028.8
20190420032516 7 21 0.0 3.2 0.00 0.00 0.00 77 1028.9
20190420032011 7 21 0.0 3.2 0.00 0.00 0.00 78 1028.9
20190420031511 7 21 0.0 1.6 0.00 0.00 0.00 78 1028.9
20190420031012 7 21 0.0 0.0 0.00 0.00 0.00 76 1028.9
20190420030506 7 21 0.0 0.0 0.00 0.00 0.00 78 1029.0
20190420030029 7 21 0.0 1.6 0.00 0.00 0.00 75 1029.0
20190420025505 8 21 0.0 1.6 0.00 0.00 0.00 76 1029.1
20190420025004 8 21 0.0 1.6 0.00 0.00 0.00 74 1029.0
20190420024505 9 21 0.0 3.2 0.00 0.00 0.00 70 1029.0
20190420024007 9 21 0.0 4.8 0.00 0.00 0.00 70 1029.0
20190420023503 9 21 1.6 4.8 0.00 0.00 0.00 71 1029.1
20190420023007 9 21 1.6 6.4 0.00 0.00 0.00 72 1029.1
20190420022502 9 21 3.2 4.8 0.00 0.00 0.00 72 1029.0
20190420022002 9 21 1.6 4.8 0.00 0.00 0.00 72 1029.0
20190420021502 9 21 3.2 4.8 0.00 0.00 0.00 72 1028.9
20190420020605 9 21 1.6 4.8 0.00 0.00 0.00 71 1029.0
20190420020212 9 21 3.2 4.8 0.00 0.00 0.00 71 1028.9
20190420015600 10 21 3.2 4.8 0.00 0.00 0.00 70 1028.8
20190420015057 10 21 3.2 6.4 0.00 0.00 0.00 70 1028.8
20190420014737 10 21 3.2 6.4 0.00 0.00 0.00 70 1028.8
20190420014101 10 21 3.2 4.8 0.00 0.00 0.00 70 1028.8
20190420013603 10 21 3.2 6.4 0.00 0.00 0.00 70 1028.8
20190420013154 10 21 3.2 6.4 0.00 0.00 0.00 69 1028.7
20190420012557 10 21 1.6 6.4 0.00 0.00 0.00 70 1028.7
20190420012054 10 21 3.2 6.4 0.00 0.00 0.00 69 1028.7
20190420011637 10 21 3.2 6.4 0.00 0.00 0.00 69 1028.7
20190420011054 10 21 3.2 4.8 0.00 0.00 0.00 70 1028.8
20190420010558 10 21 1.6 6.4 0.00 0.00 0.00 70 1028.8
20190420010202 10 21 4.8 6.4 0.00 0.00 0.00 69 1028.8
20190420005552 10 21 3.2 6.4 0.00 0.00 0.00 69 1028.8
20190420005053 10 21 3.2 6.4 0.00 0.00 0.00 69 1028.8
20190420004647 10 21 3.2 6.4 0.00 0.00 0.00 68 1028.7
20190420004057 10 23 3.2 6.4 0.00 0.00 0.00 68 1028.9
20190420003551 10 23 1.6 6.4 0.00 0.00 0.00 68 1028.8
20190420003253 10 23 1.6 6.4 0.00 0.00 0.00 67 1028.8
20190420002554 11 24 3.2 8.0 0.00 0.00 0.00 66 1028.9
20190420002051 11 24 3.2 8.0 0.00 0.00 0.00 66 1028.9
20190420001725 11 62 3.2 6.4 0.00 0.00 0.00 66 1028.9
20190420001051 11 62 3.2 6.4 0.00 0.00 0.00 65 1029.0